Regional Weather Roundup
Issued by NWS

Home | Current Version | Previous Version | Text Only | Print | Product List | Glossary On
Versions: 1 2 3 4 5 6 7 8 9 10 11 12 13 14 15 16 17 18 19 20 21 22 23 24 25 26 27 28 29 30 31 32 33 34 35 36 37 38 39 40 41 42 43 44 45 46 47 48 49 50
000
ASUS44 KBMX 282310
RWRAL

ALABAMA REGIONAL WEATHER ROUNDUP
NATIONAL WEATHER SERVICE BIRMINGHAM AL
600 PM CDT THU AUG 28 2014

NOTE: "FAIR" INDICATES FEW OR NO CLOUDS BELOW 12,000 FEET
WITH NO SIGNIFICANT WEATHER AND/OR OBSTRUCTIONS TO VISIBILITY.

THE REMARK "TC" DENOTES TEMPERATURE IN DEGREES CELSIUS.

ALZ001>011-014-016>018-020-290000-
NORTH ALABAMA

CITY           SKY/WX    TMP DP  RH WIND       PRES   REMARKS
MUSCLE SHOALS  SUNNY     87  68  52 CALM      29.96S HX  90
HUNTSVILLE     MOSUNNY   91  62  37 SE7       29.96F HX  91
DECATUR        SUNNY     92  62  36 SE5       29.96F HX  92
HALEYVILLE     FAIR      92  56  29 CALM      29.99F HX  90
GADSDEN        SUNNY     91  55  29 S3        29.95F
$$

ALZ012-013-022-023-030>036-040>044-290000-
WEST CENTRAL ALABAMA

CITY           SKY/WX    TMP DP  RH WIND       PRES   REMARKS
TUSCALOOSA     SUNNY     92  57  30 S7        29.93F HX  90
$$

ALZ015-024>027-033>036-040>044-290000-
CENTRAL ALABAMA

CITY           SKY/WX    TMP DP  RH WIND       PRES   REMARKS
BIRMINGHAM     MOSUNNY   91  48  22 SE6       29.98F
MONTGOMERY     MOSUNNY   90  62  39 E6        29.96F HX  90
SHELBY CO ARPT SUNNY     92  58  31 SE6       29.96F HX  91
MAXWELL AFB    MOSUNNY   88  61  40 SE8       29.96S
GREENVILLE     FAIR      86  63  45 SE3       29.96F
$$

ALZ019-021-028-029-037-038-045>048-290000-
EAST CENTRAL ALABAMA

CITY           SKY/WX    TMP DP  RH WIND       PRES   REMARKS
ANNISTON       SUNNY     90  56  31 SE5       29.97F
ALEXANDER CITY SUNNY     91  55  29 SE3       29.99S
AUBURN         MOSUNNY   86  57  37 W7        30.03S
$$

ALZ051>064-290000-
SOUTHWEST ALABAMA

CITY           SKY/WX    TMP DP  RH WIND       PRES   REMARKS
MOBILE         CLOUDY    77  74  90 CALM      29.94F
BROOKLEY FIELD CLOUDY    81  71  71 SW6       29.95F
EVERGREEN      MOSUNNY   92  62  36 E7        29.95S HX  92
$$

ALZ049-050-065>069-290000-
SOUTHEAST ALABAMA

CITY           SKY/WX    TMP DP  RH WIND       PRES   REMARKS
DOTHAN         PTSUNNY   88  57  34 SW3       29.99F
OZARK          PTSUNNY   89  61  39 VRB2      29.96S
TROY           PTSUNNY   87  65  47 N6        29.97F
EUFAULA        FAIR      90  66  45 CALM      29.94S HX  92
$$



USA.gov is the U.S. government's official web portal to all federal, state and local government web resources and services.